• In United Kingdom
  • List of Countries
  • For 7 days
  • Water Temperature
  • Satellite Maps
  • Weather Map
  • Weather Widgets
  • user-avatar
    Login

    Hourly Weather Melbourne

    Today, 24 November, Friday

    Time Temperature Precipitation Wind Pressure Humidity
    00:00 +22°C° 0.2 mm 1 mps 757 mmHg 67%
    01:00 +21°C° 0.2 mm 1 mps 757 mmHg 71%
    02:00 +19°C° 0.1 mm 2 mps 757 mmHg 73%
    03:00 +19°C° 0.1 mm 2 mps 757 mmHg 74%
    04:00 +20°C° 0 mm 1 mps 757 mmHg 75%
    05:00 +20°C° 0.1 mm 2 mps 757 mmHg 71%
    06:00 +21°C° 0.1 mm 2 mps 758 mmHg 67%
    07:00 +23°C° 0.1 mm 2 mps 758 mmHg 63%
    08:00 +25°C° 0 mm 2 mps 758 mmHg 57%
    09:00 +27°C° 0 mm 2 mps 758 mmHg 51%
    10:00 +28°C° 0 mm 3 mps 759 mmHg 48%
    11:00 +29°C° 0 mm 2 mps 758 mmHg 44%
    12:00 +30°C° 0 mm 2 mps 758 mmHg 40%
    13:00 +31°C° 0 mm 2 mps 758 mmHg 36%
    14:00 +31°C° 0 mm 1 mps 758 mmHg 36%
    15:00 +32°C° 0 mm 1 mps 758 mmHg 37%
    16:00 +32°C° 0 mm 1 mps 757 mmHg 37%
    17:00 +29°C° 0.8 mm 1 mps 758 mmHg 51%
    18:00 +26°C° 0.8 mm 2 mps 758 mmHg 65%
    19:00 +23°C° 0.8 mm 2 mps 758 mmHg 78%
    20:00 +21°C° 0.2 mm 2 mps 758 mmHg 81%
    21:00 +20°C° 0.2 mm 2 mps 759 mmHg 85%
    22:00 +19°C° 0.2 mm 2 mps 759 mmHg 88%
    23:00 +19°C° 0 mm 2 mps 759 mmHg 88%

    Tomorrow, 25 November, Saturday

    Time Temperature Precipitation Wind Pressure Humidity
    00:00 +20°C° 0 mm 1 mps 758 mmHg 88%
    01:00 +19°C° 0 mm 1 mps 758 mmHg 88%
    02:00 +19°C° 0 mm 1 mps 758 mmHg 87%
    03:00 +19°C° 0 mm 1 mps 758 mmHg 85%
    04:00 +19°C° 0 mm 1 mps 758 mmHg 83%
    05:00 +21°C° 0 mm 1 mps 758 mmHg 77%
    06:00 +22°C° 0 mm 1 mps 758 mmHg 71%
    07:00 +24°C° 0 mm 1 mps 758 mmHg 65%
    08:00 +26°C° 0 mm 1 mps 758 mmHg 57%
    09:00 +28°C° 0 mm 2 mps 758 mmHg 49%
    10:00 +30°C° 0 mm 3 mps 758 mmHg 41%
    11:00 +31°C° 0 mm 3 mps 758 mmHg 38%
    12:00 +33°C° 0 mm 3 mps 757 mmHg 36%
    13:00 +34°C° 0 mm 4 mps 757 mmHg 33%
    14:00 +33°C° 0.1 mm 3 mps 757 mmHg 36%
    15:00 +31°C° 0.1 mm 3 mps 756 mmHg 39%
    16:00 +31°C° 0.1 mm 3 mps 756 mmHg 41%
    17:00 +28°C° 1 mm 3 mps 756 mmHg 56%
    18:00 +25°C° 1 mm 3 mps 756 mmHg 71%
    19:00 +21°C° 1 mm 2 mps 757 mmHg 85%
    20:00 +21°C° 0.5 mm 2 mps 757 mmHg 88%
    21:00 +20°C° 0.5 mm 2 mps 757 mmHg 90%
    22:00 +21°C° 0.5 mm 1 mps 757 mmHg 93%
    23:00 +21°C° 0.3 mm 1 mps 757 mmHg 92%

    Day after tomorrow, 26 November, Sunday

    Time Temperature Precipitation Wind Pressure Humidity
    00:00 +21°C° 0.3 mm 1 mps 757 mmHg 92%
    01:00 +19°C° 0.3 mm 0 mps 757 mmHg 92%
    02:00 +20°C° 0.2 mm 1 mps 756 mmHg 92%
    03:00 +20°C° 0.2 mm 1 mps 756 mmHg 91%
    04:00 +19°C° 0.2 mm 2 mps 756 mmHg 91%
    05:00 +19°C° 0.3 mm 2 mps 756 mmHg 89%
    06:00 +20°C° 0.3 mm 2 mps 757 mmHg 88%
    07:00 +20°C° 0.3 mm 3 mps 757 mmHg 87%
    08:00 +22°C° 0.3 mm 3 mps 757 mmHg 78%
    09:00 +25°C° 0.3 mm 3 mps 758 mmHg 70%
    10:00 +27°C° 0.3 mm 3 mps 758 mmHg 62%
    11:00 +28°C° 0.4 mm 3 mps 758 mmHg 58%
    12:00 +29°C° 0.4 mm 3 mps 758 mmHg 55%
    13:00 +30°C° 0.4 mm 3 mps 757 mmHg 52%
    14:00 +29°C° 0.9 mm 3 mps 757 mmHg 60%
    15:00 +27°C° 0.9 mm 4 mps 757 mmHg 68%
    16:00 +26°C° 0.9 mm 4 mps 757 mmHg 75%
    17:00 +23°C° 1.1 mm 4 mps 757 mmHg 81%
    18:00 +21°C° 1.1 mm 4 mps 758 mmHg 87%
    19:00 +19°C° 1.1 mm 4 mps 758 mmHg 92%
    20:00 +19°C° 0.6 mm 4 mps 759 mmHg 93%
    21:00 +18°C° 0.6 mm 4 mps 759 mmHg 94%
    22:00 +17°C° 0.6 mm 3 mps 760 mmHg 95%
    23:00 +17°C° 0.2 mm 3 mps 760 mmHg 95%

    27 November, Monday

    Time Temperature Precipitation Wind Pressure Humidity
    00:00 +17°C° 0.2 mm 3 mps 760 mmHg 94%
    01:00 +17°C° 0.2 mm 3 mps 760 mmHg 94%
    02:00 +17°C° 0 mm 3 mps 760 mmHg 94%
    03:00 +17°C° 0 mm 2 mps 759 mmHg 94%
    04:00 +16°C° 0 mm 2 mps 759 mmHg 94%
    05:00 +16°C° 0 mm 2 mps 760 mmHg 94%
    06:00 +16°C° 0 mm 2 mps 760 mmHg 93%
    07:00 +16°C° 0 mm 3 mps 761 mmHg 93%
    08:00 +17°C° 0 mm 3 mps 761 mmHg 90%
    09:00 +17°C° 0 mm 3 mps 761 mmHg 88%
    10:00 +18°C° 0 mm 3 mps 761 mmHg 85%
    11:00 +20°C° 0 mm 3 mps 761 mmHg 77%
    12:00 +21°C° 0 mm 3 mps 760 mmHg 69%
    13:00 +24°C° 0 mm 3 mps 760 mmHg 61%
    14:00 +23°C° 0 mm 4 mps 760 mmHg 61%
    15:00 +23°C° 0 mm 4 mps 759 mmHg 61%
    16:00 +23°C° 0 mm 4 mps 759 mmHg 61%
    17:00 +22°C° 0 mm 4 mps 760 mmHg 66%
    18:00 +21°C° 0 mm 4 mps 760 mmHg 71%
    19:00 +20°C° 0 mm 4 mps 760 mmHg 77%
    20:00 +19°C° 0 mm 3 mps 761 mmHg 82%
    21:00 +17°C° 0 mm 3 mps 761 mmHg 87%
    22:00 +16°C° 0 mm 3 mps 762 mmHg 93%
    23:00 +16°C° 0 mm 2 mps 761 mmHg 94%

    28 November, Tuesday

    Time Temperature Precipitation Wind Pressure Humidity
    00:00 +16°C° 0 mm 2 mps 761 mmHg 94%
    01:00 +16°C° 0 mm 2 mps 761 mmHg 95%
    02:00 +16°C° 0 mm 2 mps 761 mmHg 96%
    03:00 +16°C° 0 mm 1 mps 761 mmHg 96%
    04:00 +16°C° 0 mm 1 mps 761 mmHg 96%
    05:00 +18°C° 0 mm 1 mps 761 mmHg 91%
    06:00 +19°C° 0 mm 1 mps 761 mmHg 86%
    07:00 +20°C° 0 mm 1 mps 761 mmHg 81%
    08:00 +23°C° 0 mm 1 mps 761 mmHg 72%
    09:00 +26°C° 0 mm 1 mps 761 mmHg 63%
    10:00 +28°C° 0 mm 1 mps 761 mmHg 54%
    11:00 +29°C° 0 mm 1 mps 761 mmHg 50%
    12:00 +30°C° 0 mm 2 mps 760 mmHg 47%
    13:00 +31°C° 0 mm 2 mps 760 mmHg 44%
    14:00 +31°C° 0 mm 2 mps 760 mmHg 44%
    15:00 +31°C° 0 mm 3 mps 759 mmHg 45%
    16:00 +31°C° 0 mm 3 mps 759 mmHg 45%
    17:00 +30°C° 0 mm 3 mps 759 mmHg 52%
    18:00 +28°C° 0 mm 3 mps 760 mmHg 59%
    19:00 +27°C° 0 mm 3 mps 760 mmHg 66%
    20:00 +25°C° 0 mm 3 mps 760 mmHg 72%
    21:00 +24°C° 0 mm 2 mps 761 mmHg 78%
    22:00 +21°C° 0 mm 2 mps 761 mmHg 84%
    23:00 +21°C° 0 mm 2 mps 761 mmHg 85%

    29 November, Wednesday

    Time Temperature Precipitation Wind Pressure Humidity
    00:00 +22°C° 0 mm 1 mps 760 mmHg 86%
    01:00 +21°C° 0 mm 1 mps 760 mmHg 87%
    02:00 +21°C° 0 mm 1 mps 760 mmHg 85%
    03:00 +21°C° 0 mm 1 mps 760 mmHg 84%
    04:00 +20°C° 0 mm 2 mps 760 mmHg 83%
    05:00 +23°C° 0 mm 2 mps 760 mmHg 77%
    06:00 +24°C° 0 mm 2 mps 760 mmHg 72%
    07:00 +26°C° 0 mm 3 mps 761 mmHg 66%
    08:00 +28°C° 0 mm 3 mps 760 mmHg 60%
    09:00 +30°C° 0 mm 3 mps 760 mmHg 54%
    10:00 +33°C° 0 mm 4 mps 760 mmHg 48%
    11:00 +34°C° 0 mm 3 mps 760 mmHg 44%
    12:00 +35°C° 0 mm 3 mps 759 mmHg 40%
    13:00 +36°C° 0 mm 2 mps 758 mmHg 36%
    14:00 +36°C° 0 mm 2 mps 758 mmHg 37%
    15:00 +36°C° 0 mm 2 mps 758 mmHg 38%
    16:00 +35°C° 0 mm 2 mps 757 mmHg 38%
    17:00 +32°C° 0.1 mm 2 mps 757 mmHg 45%
    18:00 +31°C° 0.1 mm 2 mps 758 mmHg 52%
    19:00 +29°C° 0.1 mm 2 mps 758 mmHg 59%
    20:00 +28°C° 0.1 mm 2 mps 758 mmHg 61%
    21:00 +27°C° 0.1 mm 1 mps 758 mmHg 63%
    22:00 +26°C° 0.1 mm 1 mps 758 mmHg 65%
    23:00 +26°C° 0.1 mm 3 mps 758 mmHg 67%
    Show more